Location: Unspecified
(90.0000°S, 0.0000°E)
Time: 22:57:03
(UTC+00:00)

AIST 2D - Visible Passes

Search period start: 21 August 2019 00:00
Search period end: 31 August 2019 00:00
Orbit: 458 x 470 km, 97.2° (Epoch: 21 August)

Date Brightness Start Highest point End Pass type
(mag) Time Alt. Az. Time Alt. Az. Time Alt. Az.
21 Aug ? 00:33:55 10° WNW 00:37:01 27° WSW 00:40:06 10° S visible
21 Aug ? 02:07:51 10° W 02:10:57 27° SW 02:14:03 10° SSE visible
21 Aug ? 03:41:47 10° WSW 03:44:53 27° SSW 03:47:59 10° SE visible
21 Aug ? 05:15:45 10° SW 05:18:49 27° SSE 05:21:56 10° ESE visible
21 Aug ? 06:49:41 10° SSW 06:52:46 27° SE 06:55:52 10° E visible
21 Aug ? 08:23:37 10° S 08:26:43 27° ESE 08:29:48 10° ENE visible
21 Aug ? 09:57:33 10° SSE 10:00:39 27° E 10:03:45 10° NE visible
21 Aug ? 11:31:30 10° SE 11:34:35 27° ENE 11:37:41 10° NNE visible
21 Aug ? 13:05:26 10° ESE 13:08:32 27° NE 13:11:38 10° N visible
21 Aug ? 14:39:22 10° E 14:42:28 27° NNE 14:45:34 10° NNW visible
21 Aug ? 16:13:19 10° ENE 16:16:25 27° N 16:19:31 10° WNW visible
21 Aug ? 17:47:16 10° NE 17:50:21 27° NNW 17:53:27 10° W visible
21 Aug ? 19:21:12 10° NNE 19:24:17 27° NW 19:27:24 10° WSW visible
21 Aug ? 20:55:08 10° N 20:58:14 27° WNW 21:01:19 10° SW visible
21 Aug ? 22:29:05 10° NNW 22:32:11 27° W 22:35:16 10° SSW visible
22 Aug ? 00:03:01 10° NW 00:06:07 27° WSW 00:09:13 10° S visible
22 Aug ? 01:36:57 10° WNW 01:40:04 27° SW 01:43:09 10° SSE visible
22 Aug ? 03:10:54 10° W 03:14:00 27° SSW 03:17:05 10° SE visible
22 Aug ? 04:44:50 10° SW 04:47:56 27° S 04:51:02 10° ESE visible
22 Aug ? 06:18:47 10° SSW 06:21:52 27° SSE 06:24:58 10° E visible
22 Aug ? 07:52:43 10° S 07:55:49 27° SE 07:58:55 10° ENE visible
22 Aug ? 09:26:40 10° SSE 09:29:45 27° ESE 09:32:51 10° NE visible
22 Aug ? 11:00:36 10° SE 11:03:42 27° E 11:06:47 10° NNE visible
22 Aug ? 12:34:32 10° ESE 12:37:38 27° ENE 12:40:44 10° N visible
22 Aug ? 14:08:29 10° E 14:11:35 27° NE 14:14:40 10° NNW visible
22 Aug ? 15:42:25 10° ENE 15:45:31 27° N 15:48:37 10° NW visible
22 Aug ? 17:16:22 10° NE 17:19:27 27° NNW 17:22:33 10° WNW visible
22 Aug ? 18:50:18 10° NNE 18:53:24 27° NW 18:56:29 10° W visible
22 Aug ? 20:24:15 10° N 20:27:20 27° WNW 20:30:26 10° WSW visible
22 Aug ? 21:58:11 10° NNW 22:01:16 27° W 22:04:23 10° SW visible
22 Aug ? 23:32:07 10° NW 23:35:13 27° WSW 23:38:19 10° SSW visible
23 Aug ? 01:06:04 10° WNW 01:09:09 27° SW 01:12:15 10° S visible
23 Aug ? 02:40:01 10° W 02:43:05 27° SSW 02:46:12 10° SSE visible
23 Aug ? 04:13:56 10° WSW 04:17:02 27° S 04:20:08 10° ESE visible
23 Aug ? 05:47:53 10° SW 05:50:59 27° SSE 05:54:04 10° E visible
23 Aug ? 07:21:49 10° SSW 07:24:55 27° SE 07:28:01 10° ENE visible
23 Aug ? 08:55:46 10° S 08:58:52 27° ESE 09:01:57 10° NE visible
23 Aug ? 10:29:42 10° SSE 10:32:47 27° E 10:35:54 10° NNE visible
23 Aug ? 12:03:38 10° SE 12:06:44 27° ENE 12:09:50 10° N visible
23 Aug ? 13:37:35 10° ESE 13:40:40 27° NE 13:43:46 10° NNW visible
23 Aug ? 15:11:31 10° E 15:14:37 27° NNE 15:17:43 10° NW visible
23 Aug ? 16:45:28 10° NE 16:48:33 27° N 16:51:39 10° WNW visible
23 Aug ? 18:19:24 10° NNE 18:22:30 27° NNW 18:25:36 10° W visible
23 Aug ? 19:53:20 10° N 19:56:26 27° NW 19:59:32 10° WSW visible
23 Aug ? 21:27:17 10° NNW 21:30:23 27° WNW 21:33:28 10° SW visible
23 Aug ? 23:01:14 10° NW 23:04:19 27° W 23:07:25 10° SSW visible
24 Aug ? 00:35:10 10° WNW 00:38:16 27° WSW 00:41:21 10° S visible
24 Aug ? 02:09:06 10° W 02:12:12 27° SW 02:15:18 10° SSE visible
24 Aug ? 03:43:02 10° WSW 03:46:08 27° S 03:49:14 10° SE visible
24 Aug ? 05:16:59 10° SW 05:20:05 27° SSE 05:23:10 10° ESE visible
24 Aug ? 06:50:55 10° SSW 06:54:00 27° SE 06:57:07 10° E visible
24 Aug ? 08:24:52 10° S 08:27:57 27° ESE 08:31:03 10° ENE visible
24 Aug ? 09:58:48 10° SSE 10:01:54 27° E 10:05:00 10° NE visible
24 Aug ? 11:32:44 10° SE 11:35:50 27° ENE 11:38:56 10° NNE visible
24 Aug ? 13:06:41 10° ESE 13:09:47 27° NE 13:12:52 10° N visible
24 Aug ? 14:40:37 10° E 14:43:43 27° NNE 14:46:49 10° NNW visible
24 Aug ? 16:14:33 10° ENE 16:17:39 27° N 16:20:45 10° WNW visible
24 Aug ? 17:48:30 10° NE 17:51:36 27° NNW 17:54:41 10° W visible
24 Aug ? 19:22:26 10° NNE 19:25:32 27° NW 19:28:38 10° WSW visible
24 Aug ? 20:56:23 10° N 20:59:29 27° WNW 21:02:34 10° SW visible
24 Aug ? 22:30:19 10° NNW 22:33:25 27° W 22:36:31 10° SSW visible
25 Aug ? 00:04:16 10° NW 00:07:21 27° WSW 00:10:27 10° S visible
25 Aug ? 01:38:12 10° WNW 01:41:18 27° SW 01:44:24 10° SSE visible
25 Aug ? 03:12:08 10° WSW 03:15:14 27° SSW 03:18:20 10° SE visible
25 Aug ? 04:46:05 10° SW 04:49:10 27° S 04:52:17 10° ESE visible
25 Aug ? 06:20:01 10° SSW 06:23:06 27° SSE 06:26:13 10° E visible
25 Aug ? 07:53:57 10° S 07:57:03 27° SE 08:00:09 10° ENE visible
25 Aug ? 09:27:54 10° SSE 09:31:00 27° ESE 09:34:06 10° NE visible
25 Aug ? 11:01:50 10° SE 11:04:56 27° E 11:08:02 10° NNE visible
25 Aug ? 12:35:47 10° ESE 12:38:53 27° ENE 12:41:58 10° N visible
25 Aug ? 14:09:43 10° E 14:12:49 27° NE 14:15:55 10° NNW visible
25 Aug ? 15:43:39 10° ENE 15:46:45 27° N 15:49:51 10° NW visible
25 Aug ? 17:17:36 10° NE 17:20:41 27° NNW 17:23:48 10° WNW visible
25 Aug ? 18:51:32 10° NNE 18:54:38 27° NW 18:57:44 10° W visible
25 Aug ? 20:25:29 10° N 20:28:34 27° WNW 20:31:41 10° WSW visible
25 Aug ? 21:59:24 10° NNW 22:02:31 27° W 22:05:37 10° SW visible
25 Aug ? 23:33:21 10° NW 23:36:27 27° WSW 23:39:33 10° SSW visible
26 Aug ? 01:07:18 10° WNW 01:10:24 27° SW 01:13:29 10° S visible
26 Aug ? 02:41:14 10° W 02:44:19 27° SSW 02:47:26 10° SSE visible
26 Aug ? 04:15:10 10° WSW 04:18:16 27° S 04:21:22 10° ESE visible
26 Aug ? 05:49:07 10° SW 05:52:13 27° SSE 05:55:19 10° E visible
26 Aug ? 07:23:03 10° SSW 07:26:09 27° SE 07:29:15 10° ENE visible
26 Aug ? 08:56:59 10° S 09:00:05 27° ESE 09:03:12 10° NE visible
26 Aug ? 10:30:56 10° SSE 10:34:01 27° E 10:37:08 10° NNE visible
26 Aug ? 12:04:52 10° SE 12:07:58 27° ENE 12:11:05 10° N visible
26 Aug ? 13:38:49 10° ESE 13:41:54 27° NE 13:45:01 10° NNW visible
26 Aug ? 15:12:45 10° ENE 15:15:51 27° NNE 15:18:57 10° NW visible
26 Aug ? 16:46:42 10° NE 16:49:47 27° N 16:52:53 10° WNW visible
26 Aug ? 18:20:38 10° NNE 18:23:44 27° NNW 18:26:50 10° W visible
26 Aug ? 19:54:34 10° N 19:57:40 27° NW 20:00:46 10° WSW visible
26 Aug ? 21:28:31 10° NNW 21:31:37 27° WNW 21:34:42 10° SW visible
26 Aug ? 23:02:27 10° NW 23:05:33 27° W 23:08:39 10° SSW visible
27 Aug ? 00:36:24 10° WNW 00:39:29 27° WSW 00:42:35 10° S visible
27 Aug ? 02:10:20 10° W 02:13:26 27° SW 02:16:32 10° SSE visible
27 Aug ? 03:44:16 10° WSW 03:47:22 27° S 03:50:28 10° SE visible
27 Aug ? 05:18:12 10° SW 05:21:18 27° SSE 05:24:25 10° ESE visible
27 Aug ? 06:52:09 10° SSW 06:55:15 27° SE 06:58:21 10° E visible
27 Aug ? 08:26:05 10° S 08:29:11 27° ESE 08:32:18 10° ENE visible
27 Aug ? 10:00:01 10° SSE 10:03:07 27° E 10:06:14 10° NE visible
27 Aug ? 11:33:58 10° SE 11:37:04 27° ENE 11:40:10 10° NNE visible
27 Aug ? 13:07:54 10° ESE 13:11:01 27° NE 13:14:07 10° N visible
27 Aug ? 14:41:50 10° E 14:44:56 27° NNE 14:48:03 10° NW visible
27 Aug ? 16:15:47 10° ENE 16:18:53 27° N 16:22:00 10° WNW visible
27 Aug ? 17:49:43 10° NE 17:52:49 27° NNW 17:55:56 10° W visible
27 Aug ? 19:23:40 10° NNE 19:26:46 27° NW 19:29:52 10° WSW visible
27 Aug ? 20:57:36 10° N 21:00:42 27° WNW 21:03:48 10° SW visible
27 Aug ? 22:31:33 10° NNW 22:34:38 27° W 22:37:45 10° SSW visible
28 Aug ? 00:05:29 10° NW 00:08:35 27° WSW 00:11:42 10° S visible
28 Aug ? 01:39:25 10° WNW 01:42:31 27° SW 01:45:38 10° SSE visible
28 Aug ? 03:13:22 10° WSW 03:16:28 27° SSW 03:19:33 10° SE visible
28 Aug ? 04:47:18 10° SW 04:50:24 27° S 04:53:30 10° ESE visible
28 Aug ? 06:21:15 10° SSW 06:24:20 27° SSE 06:27:27 10° E visible
28 Aug ? 07:55:11 10° S 07:58:17 27° SE 08:01:23 10° ENE visible
28 Aug ? 09:29:07 10° SSE 09:32:13 27° ESE 09:35:19 10° NE visible
28 Aug ? 11:03:03 10° SE 11:06:09 27° E 11:09:16 10° NNE visible
28 Aug ? 12:37:00 10° ESE 12:40:06 27° ENE 12:43:12 10° N visible
28 Aug ? 14:10:57 10° E 14:14:02 27° NE 14:17:09 10° NNW visible
28 Aug ? 15:44:53 10° ENE 15:47:58 27° N 15:51:05 10° NW visible
28 Aug ? 17:18:49 10° NE 17:21:55 27° NNW 17:25:01 10° WNW visible
28 Aug ? 18:52:45 10° NNE 18:55:51 27° NW 18:58:58 10° W visible
28 Aug ? 20:26:42 10° N 20:29:48 27° WNW 20:32:54 10° WSW visible
28 Aug ? 22:00:38 10° NNW 22:03:44 27° W 22:06:50 10° SW visible
28 Aug ? 23:34:34 10° NW 23:37:40 27° WSW 23:40:47 10° SSW visible
29 Aug ? 01:08:31 10° WNW 01:11:37 27° SW 01:14:43 10° S visible
29 Aug ? 02:42:27 10° W 02:45:33 27° SSW 02:48:40 10° SE visible
29 Aug ? 04:16:24 10° WSW 04:19:29 27° S 04:22:36 10° ESE visible
29 Aug ? 05:50:20 10° SW 05:53:26 27° SSE 05:56:32 10° E visible
29 Aug ? 07:24:17 10° SSW 07:27:22 27° SE 07:30:29 10° ENE visible
29 Aug ? 08:58:13 10° S 09:01:19 27° ESE 09:04:26 10° NE visible
29 Aug ? 10:32:09 10° SSE 10:35:15 27° E 10:38:22 10° NNE visible
29 Aug ? 12:06:06 10° SE 12:09:11 27° ENE 12:12:18 10° N visible
29 Aug ? 13:40:01 10° ESE 13:43:07 27° NE 13:46:15 10° NNW visible
29 Aug ? 15:13:58 10° ENE 15:17:04 27° NNE 15:20:11 10° NW visible
29 Aug ? 16:47:54 10° NE 16:51:01 27° N 16:54:07 10° WNW visible
29 Aug ? 18:21:50 10° NNE 18:24:57 27° NNW 18:28:03 10° W visible
29 Aug ? 19:55:47 10° N 19:58:54 27° NW 20:02:00 10° WSW visible
29 Aug ? 21:29:43 10° NNW 21:32:49 27° WNW 21:35:56 10° SW visible
29 Aug ? 23:03:40 10° NW 23:06:46 27° W 23:09:53 10° SSW visible
30 Aug ? 00:37:36 10° WNW 00:40:42 27° WSW 00:43:49 10° S visible
30 Aug ? 02:11:33 10° W 02:14:39 27° SW 02:17:45 10° SSE visible
30 Aug ? 03:45:28 10° WSW 03:48:35 27° S 03:51:42 10° SE visible
30 Aug ? 05:19:25 10° SW 05:22:31 27° SSE 05:25:38 10° ESE visible
30 Aug ? 06:53:21 10° SSW 06:56:28 27° SE 06:59:34 10° E visible
30 Aug ? 08:27:18 10° S 08:30:24 27° ESE 08:33:30 10° ENE visible
30 Aug ? 10:01:15 10° SSE 10:04:21 27° E 10:07:28 10° NE visible
30 Aug ? 11:35:11 10° SE 11:38:17 27° ENE 11:41:23 10° NNE visible
30 Aug ? 13:09:07 10° ESE 13:12:14 27° NE 13:15:20 10° N visible
30 Aug ? 14:43:03 10° E 14:46:10 27° NNE 14:49:16 10° NW visible
30 Aug ? 16:16:59 10° ENE 16:20:06 27° N 16:23:13 10° WNW visible
30 Aug ? 17:50:56 10° NE 17:54:02 27° NNW 17:57:09 10° W visible
30 Aug ? 19:24:52 10° NNE 19:27:58 27° NW 19:31:06 10° WSW visible
30 Aug ? 20:58:49 10° N 21:01:55 27° WNW 21:05:02 10° SW visible
30 Aug ? 22:32:45 10° NNW 22:35:51 27° W 22:38:58 10° SSW visible
